SWARM A (39452 NORAD) Tracking and Keplerian Element Data

This shows tracking and keplerian element data for the satellite.

Feedback or suggestion? Click here.




ElementValue
Catalog39452
NameSWARM A
Epoch Orbit30922
Epoch Day145.88778232
Epoch Year2019
RAAN272.1723
Inclination87.3463
Eccentricity0.0003375
Argument of Perigee92.2516
Mean Anonmoly267.9128
Mean Motion15.43855392
Decay Rate7.14E-06
L11 39452U 13067B 19145.88778232 .00000714 00000-0 14704-4 0 9997
L22 39452 87.3463 272.1723 0003375 92.2516 267.9128 15.43855392309229

Live tracking and technical data element details for SWARM A (NORAD 39452). SWARM A can be tracked NOW for your location showing map with azimuth and elevation plus other details from your city location.

Track the satellite on the map from your city or location and see movement details for azimuth, elevation, latitude, longitude, range, height, and movement on the map or in text.







IsCatalogInMostPopularTable: catalog: 39452, numindb: 212
Update: records affected: 1



GetName: 39452 SWARM A

Hit Count: updated at: Sun, 26 May 2019 19:48:44 GMT